OPS 4682 DEB, 38431

Orbit data source: Space-Track

OPS 4682 DEB, 38431 is space debris in LEO originally from a launch on Sat, 03 Apr 1965 UTC launched from the Air Force Western Test Range (AFWTR). Debris objects in space refer to the collection of defunct objects orbiting the Earth. Examples of debris include non-operational satellites, rocket bodies, and fragments generated from explosions, collisions, or faulty payload assembly.

Loading next visibility...
Identifier
38431, 1965-027EL
Orbit
LEO
Country
Flag of USUS
Related business
Manufacturer
Unknown
Mission
Spacecraft
Bus & Motor
Unknown
Mass
Unknown
Launch date (UTC)
1965-04-03 (61 years ago)
Launch vehicle
Unknown
Launch site
Air Force Western Test Range (AFWTR)
Object type
Payload
Rocket body
Debris
Shape & HBR
Unknown shape, 0.1 m
Radar Cross Section
Medium (>0.1 m² and <1 m²)

Expand to show TLE details & history
Last TLE update: 1 day ago

TLE from 1 day ago
0 OPS 4682 DEB
1 38431U 65027EL  26149.03548503  .00000922  00000-0  30089-2 0  9994
2 38431  90.2335 357.1108 0022490 283.3070  76.5545 13.00691253662082
Epoch: 2026-05-29T00:51Z
TLE epoch observation values (Epoch: 2026-05-29T00:51:05.906Z)
Latitude
0.00001°
Longitude
97.76455°
Altitude
1,258.306 km
Speed
7.228 km/s
True Right ascension
23h 48m 26s
True Declination
0° 00' 00"
Sunlit
Object was in daylight at epoch
Visualization orbit readout
Latitude
Unknown
Longitude
Unknown
Altitude
Unknown
Speed
Unknown
Apparent Right ascension
Unknown
Apparent Declination
Unknown
Sunlit
N/A
Visualization observer readout
Local Sidereal Time
21:55:01
Azimuth
Unknown
Elevation
Unknown
Doppler factor
Unknown
Orbital elements
Apogee altitude
1,273.676 km
Perigee altitude
1,239.335 km
Semi-major axis
7,634.642 km
Eccentricity
0.00225
Inclination
90.2335°
RAAN
357.1108°
Arg. of periapsis
283.307°
True anomaly
76.80532°
Mean anomaly
76.5545°
Eccentric anomaly
76.67989°
Mean motion
3.25357 °/min
Orbital period
110.65 mins
BSTAR
0.0030089
Loading maneuver chart data...
Computing Atmospheric mass density...
Loading historical data...
Loading historical data...
Loading historical data...
Loading historical data...
Loading historical data...
Loading historical data...
Loading historical data...

Documentation

Showing up to 5 results
|